Карточка аэропорта UAKK

Внимание!
Информация на этой странице в стадии наполнения.
Если вы не увидели какой-то информации, или заметили неточность - пожалуйста сообщите нам!
Спасибо!
Команда RU-STAFF
Название аэропортаКараганда
Название аэропорта (англ.)Karaganda
Превышение1768 ft. (538.9 m.)
Координаты49°40.302', 73°20.118'
Высота перехода10000
Эшелон переходаby ATC
Коды ответчика0630-0637, 7220-7227
Зона ОрВДАстана РПИ (UACN)
Данные METARUAKK 240530Z 00000MPS 9000 FEW010 SCT020 M25/M28 Q1033 NOSIG RMK QFE727/0970
Проноз погоды (TAF)UAKK 231700Z 2318/2418 23005MPS 9999 SCT020 BKN100 TXM13/2412Z TNM27/2401Z TEMPO 2318/2404 VRB02MPS 1000 SN BR BKN011 BECMG 2404/2406 32008MPS TEMPO 2406/2412 3100 -SN BKN011
NOTAMshow/hide NOTAM
AWOS   TABLE

Информация о ВПП

ВПП Длина ВПП (м.) Покрытие Курс ВПП Частота ILS
053601Железобетон50109.9
233601Железобетон230111.7

Диспетчерские позиции




Спутниковое изображение